Location: Bern�tre
(50.1974°N, 2.0915°E)
Time: 02:30:38
(UTC+00:00)

NOSS 8 (H) - Pass Details

Date: 18 September 2020
Orbit: 384 x 1790 km, 63.3° (Epoch: 24 October)

Event Time Altitude Azimuth Distance (km) Brightness Sun altitude
Rises 19:07:43 0° 221° (SW) 2,406 8.4 -11.8°
Reaches altitude 10° 19:09:51 10° 221° (SW) 1,464 7.3 -12.2°
Maximum altitude 19:12:57 87° 131° (SE) 392 4.0 -12.6°
Drops below altitude 10° 19:16:00 10° 44° (NE) 1,439 6.7 -13.1°
Enters shadow 19:17:02 - 44° (NE) 1,899 7.3 -13.3°
